CW9914 Weather Reports


Display with metric or nautical units.
time (UTC)temp
F
wind
direction
speed
MPH
gust
MPH
rain 1hr
in
rain 24hr
in
rain mn
in
humidity
%
barometer
mb
20260508090859 49 125 8.0 14.0 0.02 0.56 0.24 98 1009.5
20260508090358 49 123 8.0 15.0 0.01 0.55 0.24 98 1009.2
20260508085858 49 91 5.0 12.0 0.02 0.55 0.24 98 1009.2
20260508085359 49 89 3.0 8.0 0.01 0.55 0.23 98 1009.3
20260508084858 49 99 5.0 8.0 0.01 0.55 0.23 98 1009.2
20260508084358 49 75 4.0 8.0 0.01 0.54 0.23 98 1009.3
20260508083359 49 111 6.0 14.0 0.02 0.54 0.23 98 1009.1
20260508082858 49 106 6.0 12.0 0.03 0.54 0.23 98 1009.2
20260508082358 49 100 5.0 12.0 0.04 0.54 0.22 98 1009.0
20260508081858 49 110 5.0 10.0 0.05 0.54 0.22 98 1009.1
20260508080858 49 99 5.0 9.0 0.06 0.54 0.22 98 1009.0
20260508080359 49 107 5.0 9.0 0.06 0.54 0.22 98 1008.9
20260508075858 49 88 3.0 10.0 0.06 0.54 0.22 98 1008.7
20260508075358 49 82 5.0 7.0 0.06 0.54 0.22 98 1008.6
20260508074858 48 94 3.0 10.0 0.07 0.54 0.22 98 1008.8
20260508074358 48 109 6.0 10.0 0.08 0.53 0.22 99 1008.8
20260508073859 48 91 4.0 7.0 0.08 0.53 0.21 99 1008.8
20260508073359 49 116 6.0 10.0 0.07 0.52 0.20 98 1009.0
20260508072858 48 109 7.0 12.0 0.08 0.52 0.20 99 1009.1
20260508071858 49 123 6.0 12.0 0.08 0.49 0.18 98 1008.9
20260508071359 49 105 7.0 12.0 0.10 0.49 0.17 98 1009.0
20260508070859 49 122 9.0 14.0 0.11 0.48 0.17 98 1009.0
20260508070359 49 105 6.0 10.0 0.13 0.48 0.17 98 1008.9
20260508065858 49 124 7.0 14.0 0.14 0.48 0.16 97 1008.8
20260508065358 49 112 8.0 18.0 0.15 0.47 0.16 97 1008.6
20260508064858 49 114 9.0 14.0 0.15 0.46 0.15 96 1008.5
20260508064359 49 107 6.0 16.0 0.14 0.45 0.14 97 1008.2
20260508062858 49 108 5.0 9.0 0.13 0.44 0.13 99 1008.2
20260508062359 49 108 5.0 13.0 0.11 0.43 0.11 98 1008.5
20260508061858 48 125 8.0 14.0 0.10 0.41 0.10 99 1008.7
20260508061359 48 129 6.0 12.0 0.08 0.40 0.08 98 1009.0
20260508060858 48 92 5.0 10.0 0.06 0.37 0.06 98 1009.1
20260508060358 47 112 7.0 13.0 0.04 0.36 0.04 98 1009.1
20260508055859 47 121 7.0 12.0 0.02 0.34 0.02 98 1009.0
20260508055359 47 97 5.0 13.0 0.01 0.32 0.01 98 1009.1
20260508053858 46 96 2.0 7.0 0.00 0.31 0.00 98 1008.3
20260508053358 46 348 2.0 5.0 0.00 0.31 0.00 98 1008.1
20260508052859 46 341 1.0 3.0 0.00 0.31 0.00 97 1007.9
20260508052358 47 56 3.0 6.0 0.00 0.31 0.00 96 1007.7
20260508050859 47 94 3.0 8.0 0.00 0.31 0.00 96 1007.4
20260508050359 47 85 6.0 12.0 0.00 0.31 0.00 96 1007.3
20260508045359 48 56 6.0 9.0 0.00 0.31 0.00 95 1007.3
20260508044859 48 84 3.0 8.0 0.00 0.31 0.00 95 1007.4
20260508044359 48 101 3.0 8.0 0.00 0.31 0.00 95 1007.4
20260508043859 48 93 5.0 6.0 0.00 0.31 0.00 96 1007.5
20260508043359 47 57 5.0 7.0 0.00 0.31 0.00 96 1007.5
20260508042859 47 57 3.0 5.0 0.00 0.31 0.00 96 1007.5
20260508042358 47 69 3.0 5.0 0.00 0.31 0.00 96 1007.7
20260508041858 47 23 2.0 5.0 0.00 0.31 0.00 97 1007.6
20260508041358 47 33 3.0 5.0 0.00 0.31 0.00 97 1007.6
20260508040859 47 36 3.0 5.0 0.00 0.31 0.00 96 1007.7
20260508040359 47 88 2.0 5.0 0.00 0.31 0.00 96 1007.6
20260508035859 47 52 3.0 5.0 0.00 0.31 0.00 96 1007.6
20260508035359 48 326 2.0 9.0 0.00 0.31 0.00 94 1007.6
20260508034359 48 98 3.0 8.0 0.00 0.31 0.00 94 1007.8
20260508033858 49 16 3.0 7.0 0.00 0.31 0.00 93 1007.6
20260508033359 49 119 5.0 8.0 0.00 0.31 0.00 93 1007.5
20260508032359 48 137 6.0 9.0 0.00 0.31 0.00 94 1007.6
20260508031859 48 118 5.0 7.0 0.00 0.31 0.00 94 1007.7
20260508031358 48 130 5.0 12.0 0.00 0.31 0.00 95 1007.8
20260508030858 48 142 6.0 10.0 0.00 0.31 0.00 95 1007.6
20260508030359 48 125 2.0 6.0 0.00 0.31 0.00 96 1007.8
20260508025859 48 34 5.0 9.0 0.00 0.31 0.00 96 1007.7
20260508025359 47 72 2.0 5.0 0.00 0.31 0.00 97 1007.8
20260508024859 47 60 3.0 5.0 0.00 0.31 0.00 97 1007.9
20260508024358 47 33 3.0 6.0 0.00 0.31 0.00 97 1007.9
20260508023859 47 358 2.0 5.0 0.00 0.31 0.00 97 1008.0
20260508023358 47 89 1.0 6.0 0.00 0.31 0.00 96 1008.1
20260508022859 47 36 1.0 5.0 0.00 0.31 0.00 95 1008.1
20260508022359 48 41 2.0 7.0 0.00 0.31 0.00 94 1008.1
20260508021859 49 143 4.0 8.0 0.00 0.31 0.00 93 1008.1
20260508021359 49 116 5.0 12.0 0.00 0.31 0.00 93 1007.9
20260508020358 48 57 5.0 8.0 0.00 0.31 0.00 93 1008.2
20260508015859 49 121 5.0 6.0 0.00 0.31 0.00 93 1008.2
20260508015358 49 93 4.0 6.0 0.00 0.31 0.00 93 1008.3
20260508014859 49 106 4.0 6.0 0.00 0.31 0.00 92 1008.2
20260508014359 49 97 3.0 5.0 0.00 0.31 0.00 92 1008.3
20260508013359 49 95 4.0 6.0 0.00 0.31 0.00 92 1008.5
20260508012359 49 97 3.0 5.0 0.00 0.31 0.00 94 1008.7
20260508011859 49 91 3.0 6.0 0.00 0.31 0.00 94 1008.6
20260508011359 49 102 3.0 8.0 0.00 0.31 0.00 93 1008.9
20260508010858 49 107 5.0 10.0 0.00 0.31 0.00 93 1008.9
20260508010358 49 91 4.0 7.0 0.00 0.31 0.00 92 1008.9
20260508005859 49 111 5.0 8.0 0.00 0.31 0.00 92 1008.8
20260508005359 49 100 5.0 8.0 0.00 0.31 0.00 91 1008.8
20260508004859 49 97 3.0 8.0 0.00 0.31 0.00 91 1008.9
20260508004359 50 100 6.0 9.0 0.00 0.31 0.00 91 1009.0
20260508003859 50 81 4.0 6.0 0.00 0.31 0.00 91 1009.0
20260508003359 50 94 4.0 7.0 0.00 0.31 0.00 91 1009.3
20260508002859 50 104 4.0 7.0 0.00 0.31 0.00 91 1009.1
20260508001859 50 89 3.0 6.0 0.00 0.31 0.00 91 1009.1
20260508001359 50 93 3.0 7.0 0.00 0.31 0.00 91 1009.2
20260508000859 50 106 5.0 7.0 0.00 0.31 0.00 91 1009.2
20260507235859 50 104 5.0 6.0 0.00 0.31 0.00 91 1009.4
20260507235359 51 82 4.0 8.0 0.00 0.31 0.00 91 1009.4
20260507234859 51 94 4.0 7.0 0.00 0.31 0.00 91 1009.5
20260507234359 50 94 5.0 7.0 0.00 0.31 0.00 91 1009.4
20260507233858 50 97 4.0 7.0 0.00 0.31 0.00 92 1009.6
20260507233358 51 107 5.0 7.0 0.00 0.31 0.00 91 1009.5
20260507232858 51 103 5.0 6.0 0.00 0.31 0.00 91 1009.7
20260507231859 51 81 3.0 5.0 0.00 0.31 0.00 91 1009.5
20260507230359 50 86 3.0 5.0 0.00 0.31 0.00 91 1009.5
20260507225359 50 69 2.0 3.0 0.00 0.31 0.00 92 1009.5
20260507224859 50 69 2.0 5.0 0.00 0.31 0.00 93 1009.6
20260507224359 50 62 3.0 5.0 0.00 0.31 0.00 93 1009.5
20260507223859 50 32 2.0 3.0 0.00 0.31 0.00 93 1009.6
20260507223359 50 97 2.0 2.0 0.00 0.31 0.00 93 1009.4
20260507222859 50 99 1.0 2.0 0.00 0.31 0.00 93 1009.5
20260507222359 50 104 2.0 2.0 0.00 0.31 0.00 93 1009.6
20260507221858 50 105 1.0 6.0 0.00 0.31 0.00 92 1010.0
20260507221359 50 124 3.0 6.0 0.00 0.31 0.00 92 1009.9
20260507220859 50 135 5.0 6.0 0.00 0.31 0.00 92 1009.8
20260507220359 51 116 3.0 5.0 0.00 0.31 0.00 91 1009.7
20260507215859 51 107 3.0 5.0 0.00 0.31 0.31 89 1009.8
20260507214900 52 114 3.0 6.0 0.00 0.31 0.31 86 1009.7
20260507214359 52 69 3.0 6.0 0.00 0.31 0.31 85 1009.6
20260507213359 52 99 3.0 6.0 0.00 0.31 0.31 85 1009.7
20260507212359 52 94 3.0 6.0 0.00 0.31 0.31 85 1009.7
20260507211859 52 78 3.0 6.0 0.00 0.31 0.31 85 1009.5
20260507211359 52 92 3.0 5.0 0.00 0.31 0.31 85 1009.6
20260507210859 52 89 3.0 6.0 0.00 0.31 0.31 86 1009.6
20260507210359 53 125 5.0 8.0 0.00 0.31 0.31 84 1009.7
20260507205859 53 112 5.0 8.0 0.00 0.31 0.31 84 1009.6
20260507205359 53 105 5.0 8.0 0.00 0.31 0.31 85 1009.6
20260507204859 53 85 4.0 7.0 0.00 0.31 0.31 84 1009.6
20260507204359 53 113 4.0 7.0 0.00 0.31 0.31 84 1009.4
20260507203859 53 112 5.0 9.0 0.00 0.31 0.31 83 1009.2
20260507202859 53 91 4.0 7.0 0.00 0.31 0.31 82 1009.3
20260507202359 53 101 5.0 8.0 0.00 0.31 0.31 82 1009.1
20260507201859 53 112 6.0 8.0 0.00 0.31 0.31 82 1009.0
20260507201359 54 100 5.0 7.0 0.00 0.31 0.31 82 1009.0
20260507200859 54 104 4.0 6.0 0.00 0.31 0.31 82 1008.6
20260507200359 54 96 3.0 6.0 0.00 0.31 0.31 81 1008.7
20260507195859 54 105 4.0 6.0 0.00 0.31 0.31 81 1008.8
20260507195359 54 90 3.0 6.0 0.00 0.31 0.31 80 1008.7
20260507194859 54 87 4.0 9.0 0.00 0.31 0.31 79 1008.6
20260507194400 55 107 4.0 7.0 0.00 0.31 0.31 78 1008.7
20260507193859 55 92 4.0 10.0 0.00 0.31 0.31 77 1008.7
20260507192859 55 90 4.0 7.0 0.00 0.31 0.31 75 1008.5
20260507192359 55 101 5.0 9.0 0.00 0.31 0.31 75 1008.5
20260507191859 56 103 6.0 9.0 0.00 0.31 0.31 76 1008.3
20260507191359 57 102 5.0 12.0 0.00 0.31 0.31 75 1008.2
20260507185859 57 68 3.0 6.0 0.00 0.31 0.31 71 1008.0
20260507185359 57 45 5.0 6.0 0.00 0.31 0.31 70 1008.0
20260507184859 57 60 5.0 7.0 0.00 0.31 0.31 72 1008.1
20260507184400 56 82 4.0 9.0 0.00 0.31 0.31 73 1008.2
20260507183900 56 68 6.0 12.0 0.00 0.31 0.31 73 1008.0
20260507183359 56 56 10.0 14.0 0.00 0.31 0.31 73 1008.1
20260507182859 57 49 7.0 14.0 0.00 0.31 0.31 73 1007.8
20260507182358 57 53 7.0 15.0 0.00 0.31 0.31 75 1008.0
20260507181859 56 54 7.0 14.0 0.00 0.31 0.31 77 1008.3
20260507181359 57 70 12.0 20.0 0.00 0.31 0.31 76 1008.1
20260507180859 57 64 9.0 16.0 0.00 0.31 0.31 75 1008.1
20260507180359 57 78 6.0 14.0 0.00 0.31 0.31 75 1008.2
20260507175859 57 65 7.0 10.0 0.00 0.31 0.31 75 1008.1
20260507175359 57 76 6.0 10.0 0.00 0.31 0.31 75 1008.4
20260507174900 57 77 5.0 9.0 0.00 0.31 0.31 77 1008.4
20260507174359 57 78 5.0 12.0 0.00 0.31 0.31 78 1008.5
20260507173859 57 69 6.0 12.0 0.00 0.31 0.31 78 1008.5
20260507173359 57 71 7.0 13.0 0.00 0.31 0.31 80 1008.5
20260507172400 56 54 8.0 14.0 0.00 0.31 0.31 82 1008.6
20260507171859 56 68 7.0 12.0 0.00 0.31 0.31 82 1008.6
20260507171400 56 58 9.0 13.0 0.00 0.31 0.31 83 1008.4
20260507170859 56 65 9.0 14.0 0.00 0.31 0.31 83 1008.3
20260507170359 56 42 7.0 13.0 0.00 0.31 0.31 83 1008.3
20260507165859 56 45 11.0 18.0 0.00 0.31 0.31 83 1008.3
20260507165400 56 39 9.0 16.0 0.00 0.31 0.31 84 1008.1
20260507164859 56 56 7.0 17.0 0.00 0.31 0.31 83 1008.1
20260507164359 56 22 12.0 18.0 0.00 0.31 0.31 81 1008.3
20260507163859 56 26 12.0 17.0 0.00 0.31 0.31 81 1008.1
20260507163359 56 18 15.0 21.0 0.00 0.31 0.31 79 1008.1
20260507162359 56 20 13.0 21.0 0.00 0.31 0.31 77 1008.2
20260507161859 57 20 8.0 15.0 0.00 0.31 0.31 77 1008.2
20260507160900 58 326 6.0 15.0 0.00 0.31 0.31 72 1007.8
20260507160400 58 338 9.0 18.0 0.00 0.31 0.31 72 1007.7
20260507154859 58 342 6.0 12.0 0.19 0.31 0.31 76 1007.4
20260507152359 58 341 6.0 12.0 0.31 0.31 0.31 75 1007.4
20260507151900 58 3 7.0 13.0 0.31 0.31 0.31 74 1007.6
20260507151400 57 7 6.0 15.0 0.31 0.31 0.31 76 1007.7
20260507150859 57 353 7.0 10.0 0.31 0.31 0.31 77 1007.7
20260507150359 56 0 6.0 12.0 0.31 0.31 0.31 77 1007.8
20260507145859 55 318 7.0 9.0 0.31 0.31 0.31 79 1008.1
20260507145400 56 338 6.0 14.0 0.28 0.28 0.28 74 1008.0
20260507144359 60 311 9.0 13.0 0.02 0.02 0.02 61 1007.2
20260507143359 62 18 7.0 13.0 0.00 0.00 0.00 58 1006.6
20260507142859 63 39 4.0 14.0 0.00 0.00 0.00 59 1006.4
20260507142400 62 54 3.0 8.0 0.00 0.00 0.00 61 1006.4
20260507141900 62 358 5.0 13.0 0.00 0.00 0.00 63 1006.3
20260507141359 61 332 7.0 16.0 0.00 0.00 0.00 65 1006.3
20260507140359 61 337 12.0 16.0 0.00 0.00 0.00 62 1006.2
20260507135900 63 325 10.0 15.0 0.00 0.00 0.00 57 1006.0
20260507134859 65 85 4.0 13.0 0.00 0.00 0.00 35 1005.8
20260507134359 66 247 5.0 15.0 0.00 0.00 0.00 37 1005.6
20260507133900 67 202 5.0 12.0 0.00 0.00 0.00 36 1005.4
20260507133400 65 112 6.0 16.0 0.00 0.00 0.00 38 1005.9
20260507132859 65 151 7.0 17.0 0.00 0.00 0.00 38 1006.0
20260507132359 65 159 10.0 14.0 0.00 0.00 0.00 36 1005.8
20260507131900 65 184 7.0 14.0 0.00 0.00 0.00 40 1005.9
20260507131400 65 203 7.0 13.0 0.00 0.00 0.00 37 1005.8
20260507130859 65 160 9.0 14.0 0.00 0.00 0.00 39 1006.0
20260507130411 65 136 7.0 14.0 0.00 0.00 0.00 43 1006.1
20260507125400 64 186 2.0 7.0 0.00 0.00 0.00 45 1006.3
20260507124859 66 168 4.0 9.0 0.00 0.00 0.00 45 1006.0
20260507124359 65 104 3.0 12.0 0.00 0.00 0.00 43 1006.2
20260507123900 64 151 5.0 12.0 0.00 0.00 0.00 47 1006.6
20260507123400 64 244 5.0 13.0 0.00 0.00 0.00 46 1006.6
20260507122859 64 133 5.0 16.0 0.00 0.00 0.00 48 1006.6
20260507122400 66 128 6.0 12.0 0.00 0.00 0.00 46 1006.6
20260507121900 64 121 6.0 10.0 0.00 0.00 0.00 47 1006.9
20260507120900 62 279 2.0 7.0 0.00 0.00 0.00 49 1007.2
20260507115859 61 182 2.0 6.0 0.00 0.00 0.00 51 1007.6
20260507115359 62 166 3.0 15.0 0.00 0.00 0.00 50 1007.5
20260507114859 61 168 3.0 8.0 0.00 0.00 0.00 53 1007.8
20260507114359 61 267 3.0 6.0 0.00 0.00 0.00 50 1007.8
20260507112900 63 83 3.0 5.0 0.00 0.00 0.00 47 1007.6
20260507112400 61 97 3.0 5.0 0.00 0.00 0.00 52 1007.9
20260507111859 60 101 2.0 5.0 0.00 0.00 0.00 54 1008.0
20260507111400 59 317 2.0 6.0 0.00 0.00 0.00 55 1008.0
20260507110400 61 136 5.0 8.0 0.00 0.00 0.00 55 1008.1
20260507105859 60 122 2.0 5.0 0.00 0.00 0.00 56 1008.3
20260507105400 59 95 3.0 9.0 0.00 0.00 0.00 56 1008.5
20260507104359 57 71 3.0 6.0 0.00 0.00 0.00 66 1008.8
20260507103359 59 30 1.0 6.0 0.00 0.00 0.00 60 1008.6
20260507102859 59 100 3.0 5.0 0.00 0.00 0.00 61 1008.7
20260507102359 59 112 5.0 7.0 0.00 0.00 0.00 63 1008.7
20260507101859 58 102 4.0 7.0 0.00 0.00 0.00 64 1008.7
20260507101400 57 103 4.0 6.0 0.00 0.00 0.00 67 1008.9
20260507100859 58 102 4.0 7.0 0.00 0.00 0.00 66 1008.7
20260507100400 57 93 4.0 6.0 0.00 0.00 0.00 68 1008.8
20260507095900 56 90 3.0 6.0 0.00 0.00 0.00 72 1009.0
20260507095359 54 99 3.0 6.0 0.00 0.00 0.00 76 1009.4
20260507094859 54 118 3.0 6.0 0.00 0.00 0.00 78 1009.5
20260507094400 53 137 3.0 5.0 0.00 0.00 0.00 80 1009.5
20260507093900 51 136 1.0 3.0 0.00 0.00 0.00 82 1009.8
20260507093359 51 105 2.0 6.0 0.00 0.00 0.00 84 1009.8
20260507092900 51 128 6.0 9.0 0.00 0.00 0.00 86 1009.9
20260507092359 50 108 3.0 6.0 0.00 0.00 0.00 89 1010.1
20260507091900 49 113 3.0 6.0 0.00 0.00 0.00 91 1010.3
20260507091400 49 102 5.0 8.0 0.00 0.00 0.00 93 1010.2